Skip to main content.
NOAA NWS Hourly Roundups by Site

NOAA NWS Hourly Roundups by Site

Regional Weather Roundup for Omaha, NE

To Select Another Site Choose from List

Select Site:  

000
ASUS43 KOAX 281110
RWRNE

WEATHER ROUNDUP FOR NEBRASKA
NATIONAL WEATHER SERVICE OMAHA NE
600 AM CDT TUE JUN 28 2022

NOTES: SATELLITE DATA IS BEING USED TO AUGMENT CLOUD COVER ABOVE
       12000 FEET.
       "FAIR" INDICATES FEW OR NO CLOUDS BELOW 12,000 FEET WITH NO
       SIGNIFICANT WEATHER AND/OR OBSTRUCTIONS TO VISIBILITY.


NEZ001>004-019>022-054>056-281200-
NEBRASKA PANHANDLE

CITY           SKY/WX    TMP DP  RH WIND       PRES   REMARKS
SCOTTSBLUFF    PTCLDY    58  43  57 CALM      30.22S
ALLIANCE       CLEAR     47  44  90 W3        30.21R
CHADRON        CLEAR     48  40  73 W6        30.18F
GORDON         CLEAR     55  40  58 CALM      30.18S
KIMBALL        PTCLDY    54  42  64 W6        30.26S
SIDNEY         PTCLDY    52  44  74 NW8       30.23R
$$

NEZ057>060-069>072-079>082-281200-
SOUTHWEST NEBRASKA

CITY           SKY/WX    TMP DP  RH WIND       PRES   REMARKS
NORTH PLATTE   CLEAR     57  47  69 VRB3      30.19S
IMPERIAL       CLEAR     56  53  90 SW10      30.20F
LEXINGTON      CLEAR     58  49  72 SW9       30.21R
MCCOOK         CLEAR     53  45  74 S8        30.22S
OGALLALA       CLEAR     54  51  90 CALM      30.19S
$$

NEZ005>010-023>029-035>040-094-281200-
NORTH CENTRAL NEBRASKA

CITY           SKY/WX    TMP DP  RH WIND       PRES   REMARKS
VALENTINE      CLEAR     53  48  83 W7        30.14S
AINSWORTH      CLEAR     56  47  74 SW7       30.14F
BROKEN BOW     CLEAR     56  48  74 SE5       30.17S
O`NEILL        CLEAR     56  47  71 SW9       30.14R
ORD            CLEAR     57  49  74 S6        30.16S
THEDFORD       CLEAR     54  47  78 CALM      30.19R
$$

NEZ041-046>049-061>064-073>077-083>087-281200-
SOUTH CENTRAL NEBRASKA

CITY           SKY/WX    TMP DP  RH WIND       PRES   REMARKS
GRAND ISLAND   CLEAR     59  48  67 SW9       30.21R
AURORA         CLEAR     56  51  81 SW7       30.21R
HEBRON         CLEAR     56  51  81 SW5       30.24S
HOLDREGE       CLEAR     54  48  81 SW10      30.21S
KEARNEY        CLEAR     58  50  75 SW12      30.22R
YORK           CLEAR     55  52  88 SW6       30.21R
$$

NEZ011>018-030>034-042>045-281200-
NORTHEAST NEBRASKA

CITY           SKY/WX    TMP DP  RH WIND       PRES   REMARKS
NORFOLK        CLEAR     60  48  64 S10       30.16F
ALBION         CLEAR     57  50  77 MISG      30.18S
BLAIR          PTCLDY    60  53  75 S5        30.21S
COLUMBUS       CLEAR     59  52  77 SW5       30.21R
FREMONT        PTCLDY    63  54  71 S5        30.21S
TEKAMAH        CLEAR     56  52  86 S8        30.19S
WAYNE          PTCLDY    60  50  69 S9        30.16F
$$

NEZ050>053-065>068-078-088>093-281200-
SOUTHEAST NEBRASKA

CITY           SKY/WX    TMP DP  RH WIND       PRES   REMARKS
LINCOLN        CLEAR     56  51  84 S7        30.22S
OMAHA EPPLEY   PTCLDY    63  52  67 S8        30.21S
BEATRICE       CLEAR     58  52  79 MISG      30.24S
FALLS CITY     CLEAR     61  54  77 SW3       30.24S
NEBRASKA CITY  CLEAR     60  53  78 SW8       30.24S
PLATTSMOUTH    CLEAR     58  53  81 S5        30.23S
$$

NEZ044-045-051>053-067-281200-
OMAHA AREA

CITY           SKY/WX    TMP DP  RH WIND       PRES   REMARKS
OMAHA EPPLEY   PTCLDY    63  52  67 S8        30.21S
BLAIR          PTCLDY    60  53  75 S5        30.21S
FREMONT        PTCLDY    63  54  71 S5        30.21S
MILLARD        CLEAR     62  54  74 S6        30.22S
OFFUTT AFB     CLEAR     61  51  70 SE5       30.24S
PLATTSMOUTH    CLEAR     58  53  81 S5        30.23S
WAHOO          CLEAR     56  56 100 S5        30.21S
$$


 

View Past Reports for Omaha, NE.

Products Courtesy of NOAA-NWS
NWS Information Parsing Script by Ken True at Saratoga Weather - Script by SE Lincoln Weather.